Weather History for St. Joseph, MO

Change the Weather History Date:

Wednesday, March 6, 2013

  Actual Average Record
Temperature  
Mean Temperature 28 °F 39 °F  
Max Temperature 37 °F 50 °F 75 °F (1987)
Min Temperature 19 °F 28 °F -8 °F (1960)
Degree Days  
Heating Degree Days 37 26  
Month to date heating degree days 206 164  
Since 1 July heating degree days 4310 4472  
Cooling Degree Days 0 0  
Month to date cooling degree days 0 0  
Year to date cooling degree days 0 0  
Moisture  
Dew Point 18 °F    
Average Humidity 67    
Maximum Humidity 81    
Minimum Humidity 52    
Precipitation  
Precipitation 0.00 in 0.06 in 0.85 in (1900)
Month to date precipitation T 0.34  
Year to date precipitation 1.01 1.83  
Sea Level Pressure  
Sea Level Pressure 30.41 in    
Wind  
Wind Speed 6 mph (NNE)    
Max Wind Speed 23 mph    
Max Gust Speed 28 mph    
Visibility 10 miles    
Events      
T = Trace of Precipitation, MM = Missing Value Source: NWS Daily Summary

Daily Weather History Graph

Daily Weather History Graph

Search for Another Location

Airport:

Trip Planner

Search our weather history database for the weather conditions in past years. The results will help you decide how hot, cold, wet, or windy it might be!

Date:

Astronomy

Mar. 06, 2013 Rise Set
Actual Time 6:44 AM CST 6:17 PM CST
Civil Twilight 6:17 AM CST 6:44 PM CST
Nautical Twilight 5:46 AM CST 7:15 PM CST
Astronomical Twilight 5:15 AM CST 7:47 PM CST
Moon 2:54 AM CST (3/6) 1:00 PM CST (3/6)
Length of Visible Light 12h 26m
Length of Day
11h 32m
Waning Crescent, 29% of the Moon is Illuminated
Mar 6
Waning Crescent
Mar 11
New
Mar 19
First Quarter
Mar 27
Full
Apr 2
Last Quarter

Hourly Weather History & Observations

Time (CST) Temp. Windchill Dew Point Humidity Pressure Visibility Wind Dir Wind Speed Gust Speed Precip Events Conditions
12:42 AM 26.6 °F 13.8 °F 17.6 °F 69% 30.37 in 10.0 mi North 17.3 mph 26.5 mph N/A   Overcast
12:53 AM 27.0 °F 15.2 °F 18.0 °F 69% 30.40 in 10.0 mi NNW 15.0 mph - N/A   Overcast
1:53 AM 27.0 °F 15.6 °F 17.1 °F 66% 30.42 in 10.0 mi NNW 13.8 mph - N/A   Overcast
2:17 AM 26.6 °F 14.7 °F 17.6 °F 69% 30.40 in 10.0 mi NNW 15.0 mph - N/A   Overcast
2:31 AM 26.6 °F 14.7 °F 17.6 °F 69% 30.39 in 10.0 mi NNW 15.0 mph 20.7 mph N/A   Overcast
2:53 AM 27.0 °F 14.7 °F 17.1 °F 66% 30.42 in 10.0 mi North 16.1 mph - N/A   Overcast
3:53 AM 25.0 °F 13.6 °F 17.1 °F 72% 30.43 in 10.0 mi North 12.7 mph - N/A   Mostly Cloudy
4:03 AM 24.8 °F 16.1 °F 17.6 °F 74% 30.40 in 10.0 mi North 8.1 mph - N/A   Scattered Clouds
4:53 AM 21.9 °F 13.4 °F 15.1 °F 75% 30.45 in 10.0 mi NNW 6.9 mph - N/A   Clear
5:53 AM 21.9 °F 13.4 °F 15.1 °F 75% 30.46 in 10.0 mi NNW 6.9 mph - N/A   Clear
6:53 AM 19.0 °F - 12.9 °F 77% 30.47 in 10.0 mi Calm Calm - N/A   Clear
7:53 AM 23.0 °F - 17.1 °F 78% 30.47 in 10.0 mi Calm Calm - N/A   Clear
8:53 AM 27.0 °F 18.0 °F 18.0 °F 69% 30.48 in 10.0 mi NNE 9.2 mph - N/A   Partly Cloudy
9:07 AM 26.6 °F 17.5 °F 17.6 °F 69% 30.44 in 10.0 mi NNE 9.2 mph - N/A   Mostly Cloudy
9:53 AM 28.9 °F 21.9 °F 19.0 °F 67% 30.48 in 10.0 mi Variable 6.9 mph - N/A   Overcast
10:53 AM 30.0 °F 24.1 °F 19.0 °F 64% 30.47 in 10.0 mi Variable 5.8 mph - N/A   Mostly Cloudy
11:13 AM 30.2 °F 25.4 °F 17.6 °F 60% 30.44 in 10.0 mi North 4.6 mph - N/A   Scattered Clouds
11:21 AM 30.2 °F 24.3 °F 19.4 °F 64% 30.43 in 10.0 mi NNW 5.8 mph - N/A   Mostly Cloudy
11:28 AM 30.2 °F 23.4 °F 19.4 °F 64% 30.43 in 10.0 mi NW 6.9 mph - N/A   Partly Cloudy
11:53 AM 32.0 °F - 19.0 °F 59% 30.45 in 10.0 mi Calm Calm - N/A   Clear
12:53 PM 32.0 °F - 19.0 °F 59% 30.44 in 10.0 mi Calm Calm - N/A   Clear
1:53 PM 34.0 °F - 19.0 °F 54% 30.42 in 10.0 mi Calm Calm - N/A   Clear
2:53 PM 36.0 °F - 19.9 °F 52% 30.39 in 10.0 mi Calm Calm - N/A   Clear
3:53 PM 36.0 °F 33.3 °F 19.0 °F 50% 30.37 in 10.0 mi SSW 3.5 mph - N/A   Clear
4:53 PM 36.0 °F 33.3 °F 21.0 °F 55% 30.36 in 10.0 mi SSE 3.5 mph - N/A   Clear
5:53 PM 34.0 °F 28.0 °F 19.9 °F 56% 30.35 in 10.0 mi SE 6.9 mph - N/A   Clear
6:53 PM 32.0 °F 26.4 °F 19.9 °F 61% 30.34 in 10.0 mi ESE 5.8 mph - N/A   Clear
7:53 PM 30.0 °F 23.2 °F 19.0 °F 64% 30.34 in 10.0 mi ESE 6.9 mph - N/A   Clear
8:53 PM 30.0 °F 23.2 °F 19.0 °F 64% 30.33 in 10.0 mi ESE 6.9 mph - N/A   Clear
9:53 PM 28.9 °F 22.8 °F 19.0 °F 67% 30.33 in 10.0 mi SE 5.8 mph - N/A   Clear
10:53 PM 27.0 °F 19.5 °F 19.0 °F 72% 30.34 in 10.0 mi SE 6.9 mph - N/A   Clear
11:53 PM 26.1 °F 17.6 °F 19.0 °F 75% 30.33 in 10.0 mi SE 8.1 mph - N/A   Clear